TimeEST,TemperatureF,Dew PointF,Humidity,Sea Level PressureIn,VisibilityMPH,Wind Direction,Wind SpeedMPH,Gust SpeedMPH,PrecipitationIn,Events,Conditions,WindDirDegrees,DateUTC
12:56 AM,32.0,30.9,96,29.91,1.2,Calm,Calm,-,0.00,,Drizzle,0,2012-12-25 05:56:00
1:56 AM,32.0,30.9,96,29.94,1.8,NNW,3.5,-,0.00,,Overcast,330,2012-12-25 06:56:00
2:56 AM,32.0,30.9,96,29.95,1.5,NW,3.5,-,N/A,,Overcast,320,2012-12-25 07:56:00
3:56 AM,33.1,32.0,96,29.96,1.5,North,3.5,-,N/A,,Overcast,350,2012-12-25 08:56:00
4:15 AM,33.8,32.0,93,29.96,2.0,NW,3.5,-,N/A,,Overcast,320,2012-12-25 09:15:00
4:56 AM,33.1,30.9,92,29.99,2.0,WNW,5.8,-,N/A,,Overcast,290,2012-12-25 09:56:00
5:18 AM,33.8,30.2,87,29.98,3.0,WNW,5.8,-,N/A,,Overcast,300,2012-12-25 10:18:00
5:56 AM,32.0,30.0,92,30.01,4.0,NNW,4.6,-,N/A,,Mostly Cloudy,330,2012-12-25 10:56:00
6:35 AM,33.8,30.2,87,30.02,3.0,NW,6.9,-,N/A,,Overcast,320,2012-12-25 11:35:00
6:56 AM,33.1,30.9,92,30.04,3.0,NW,8.1,-,N/A,,Overcast,310,2012-12-25 11:56:00
7:56 AM,33.1,30.9,92,30.07,2.5,WNW,5.8,-,N/A,,Overcast,300,2012-12-25 12:56:00
8:37 AM,33.8,30.2,87,30.08,3.0,NW,5.8,-,N/A,,Scattered Clouds,310,2012-12-25 13:37:00
8:56 AM,34.0,32.0,92,30.10,3.0,North,4.6,-,N/A,,Scattered Clouds,360,2012-12-25 13:56:00
9:56 AM,35.1,32.0,89,30.14,3.0,WNW,10.4,-,N/A,,Mostly Cloudy,300,2012-12-25 14:56:00
10:56 AM,36.0,33.1,89,30.13,4.0,NW,8.1,-,N/A,,Overcast,310,2012-12-25 15:56:00
11:56 AM,39.0,34.0,82,30.13,4.0,WNW,9.2,-,N/A,,Haze,290,2012-12-25 16:56:00
12:56 PM,39.9,35.1,83,30.13,8.0,NW,6.9,-,N/A,,Mostly Cloudy,320,2012-12-25 17:56:00
1:56 PM,41.0,32.0,70,30.12,8.0,North,9.2,-,N/A,,Mostly Cloudy,350,2012-12-25 18:56:00
2:56 PM,39.9,30.9,70,30.13,10.0,NNW,6.9,-,N/A,,Scattered Clouds,340,2012-12-25 19:56:00
3:56 PM,37.9,32.0,79,30.14,9.0,NW,4.6,-,N/A,,Mostly Cloudy,320,2012-12-25 20:56:00
4:56 PM,37.0,30.0,76,30.19,9.0,NNW,4.6,-,N/A,,Mostly Cloudy,330,2012-12-25 21:56:00
5:56 PM,37.9,28.9,70,30.20,9.0,North,9.2,-,N/A,,Overcast,10,2012-12-25 22:56:00
6:56 PM,37.0,28.0,70,30.21,10.0,North,5.8,-,N/A,,Overcast,360,2012-12-25 23:56:00
7:56 PM,35.1,25.0,67,30.24,10.0,NNE,3.5,-,N/A,,Overcast,20,2012-12-26 00:56:00
8:56 PM,33.1,24.1,70,30.25,10.0,North,4.6,-,N/A,,Mostly Cloudy,10,2012-12-26 01:56:00
9:56 PM,32.0,23.0,69,30.27,10.0,North,4.6,-,N/A,,Mostly Cloudy,360,2012-12-26 02:56:00
10:56 PM,30.9,21.9,69,30.28,10.0,Calm,Calm,-,N/A,,Mostly Cloudy,0,2012-12-26 03:56:00
11:56 PM,30.0,21.9,72,30.28,10.0,Calm,Calm,-,N/A,,Mostly Cloudy,0,2012-12-26 04:56:00